Theta_e
315 315 317 317 317 304 310 311 306 309 315 312 308 309 309 308 305 302 312 309 311 316 317 319 320 319 320 321 321 321 325 325 333 334 337 337 336 336 340 341 342 347 348 351 352 356 355 352 351 347 350 352 352 354 352 353 354 352 352 354 354 352 353
316 318 318 317 317 316 313 306 310 315 317 314 311 301 306 302 299 302 306 304 307 307 304 320 317 317 318 319 319 319 326 326 325 330 337 337 337 340 343 345 346 348 348 348 352 357 354 352 350 349 352 353 354 354 353 352 352 352 353 353 353 352 351
315 318 316 313 317 318 313 311 317 308 304 302 309 308 299 299 298 301 305 307 306 308 310 313 314 315 317 319 323 320 321 323 325 326 330 339 340 342 342 342 343 345 347 346 350 353 353 353 352 350 352 352 353 353 353 350 351 353 353 351 352 352 353
315 315 313 305 309 315 317 317 313 316 311 308 306 307 307 306 298 301 302 305 302 315 312 314 314 318 322 319 320 318 320 324 327 330 328 334 341 338 336 339 338 340 344 344 346 349 351 352 350 348 347 349 349 350 352 351 351 355 354 353 352 351 351
314 307 310 307 309 307 309 309 308 311 310 314 311 310 306 303 301 301 300 299 306 315 319 318 318 321 322 321 322 327 325 325 325 329 330 338 341 339 339 340 339 340 345 346 346 347 349 350 349 346 347 347 348 349 348 346 350 350 349 350 350 351 352
308 310 314 313 312 312 310 309 307 309 308 306 303 302 309 308 304 298 300 300 308 315 322 321 319 321 319 321 322 325 324 321 332 333 330 339 339 342 342 343 339 337 340 346 346 345 346 344 343 346 347 347 347 346 345 344 345 346 346 348 350 352 352
309 312 315 316 316 315 314 313 310 312 312 311 306 297 304 307 307 308 308 303 305 319 322 322 322 321 319 321 320 323 323 327 326 330 326 340 347 344 339 344 343 344 345 347 346 346 344 343 345 344 343 342 344 343 343 343 343 343 342 344 349 353 351
313 315 317 316 316 315 312 313 313 311 308 309 308 307 312 306 308 304 304 303 306 320 333 324 323 327 321 329 322 324 324 324 329 326 330 348 343 348 345 344 345 344 343 347 346 343 341 342 343 341 339 340 341 341 340 339 339 340 340 343 345 349 350
307 309 312 312 315 313 310 309 312 312 312 312 311 312 321 306 306 306 303 298 307 321 328 328 325 319 319 321 322 325 324 329 326 333 340 342 352 351 348 349 347 345 343 344 344 343 341 343 343 344 342 338 339 340 340 338 337 339 339 343 344 347 347
297 297 298 301 305 308 310 311 311 312 310 311 309 305 311 301 311 315 305 306 315 321 326 320 321 320 323 323 323 323 329 328 326 328 337 351 353 355 353 353 349 346 346 345 345 344 342 346 347 346 347 344 341 340 341 340 338 339 338 337 346 345 345
304 306 313 313 313 310 306 308 310 310 313 313 312 314 310 303 307 307 309 313 312 315 315 318 319 322 319 320 324 326 325 330 336 335 345 347 353 356 351 353 348 349 348 346 345 345 346 346 349 348 346 342 339 344 340 337 342 341 346 341 345 344 341
311 310 313 312 312 309 310 309 309 310 311 312 310 307 306 320 312 300 312 317 313 313 316 318 323 323 324 324 326 325 331 329 332 339 343 345 346 350 354 355 350 347 347 348 346 345 348 349 350 348 344 341 344 342 337 339 335 333 336 345 346 344 342
310 311 311 312 311 311 311 311 311 310 311 310 309 312 311 320 309 304 319 322 317 317 316 318 321 327 331 320 323 326 326 327 339 340 333 337 339 343 341 347 353 349 347 348 348 346 348 350 349 346 342 343 347 342 338 341 334 338 345 342 343 343 345
310 311 311 312 310 311 312 311 311 311 311 310 310 310 311 311 319 318 316 322 316 314 316 319 323 324 323 325 329 331 326 324 339 336 341 332 337 341 346 349 351 353 351 350 348 347 348 349 347 343 342 344 342 339 337 335 340 342 344 342 345 344 342
308 311 312 311 311 310 310 311 311 311 311 311 311 311 311 313 312 312 312 321 319 319 329 326 327 334 329 329 323 323 333 327 323 325 325 330 333 340 345 349 350 351 351 350 348 348 349 348 346 344 342 344 341 335 337 338 342 338 347 345 346 345 344
306 309 310 310 311 310 309 309 310 311 310 308 310 310 312 311 314 314 313 314 311 319 325 323 326 325 326 325 326 327 328 324 327 327 326 332 340 339 343 346 348 350 348 349 348 348 348 349 347 346 344 343 342 340 339 337 336 339 343 345 345 346 345
304 309 310 309 309 308 305 306 309 311 312 313 313 313 316 315 316 315 309 309 318 322 325 322 323 321 324 325 324 327 331 340 332 332 331 333 335 342 345 344 345 345 343 349 350 349 350 349 348 347 346 343 338 338 338 339 338 338 343 343 347 347 345
305 308 309 310 307 299 301 314 315 314 311 312 310 310 312 318 319 315 316 319 324 320 320 319 322 321 325 329 331 330 332 332 338 334 337 335 336 336 337 345 344 348 349 350 352 352 353 352 349 346 348 342 339 339 337 338 338 342 344 345 347 346 346
305 308 308 304 298 300 315 316 316 316 315 314 312 313 313 315 321 319 316 317 320 324 322 324 324 328 328 326 331 325 325 336 333 335 331 335 337 338 338 346 346 354 355 355 356 356 353 350 349 345 344 340 338 338 336 336 341 347 345 345 347 347 345
309 305 304 298 298 312 318 317 316 317 316 315 315 314 314 316 316 320 317 319 320 326 323 321 327 331 324 325 333 334 331 328 327 325 326 328 329 335 340 350 353 356 355 356 353 355 353 351 348 344 340 336 335 336 336 338 342 347 346 346 346 346 345
302 304 303 303 317 312 314 312 313 315 315 315 313 308 314 319 320 320 319 321 321 321 321 322 323 325 322 323 326 326 324 331 330 328 327 328 334 339 348 347 352 360 358 358 354 358 354 351 348 346 340 335 338 338 337 339 344 343 344 346 345 346 344
308 303 302 303 304 302 307 317 318 320 320 319 319 318 311 325 319 320 320 321 324 321 320 322 324 326 319 316 318 323 322 324 333 333 331 330 338 343 345 355 352 359 358 357 360 354 352 350 348 347 341 341 345 345 341 341 339 339 341 342 345 345 344
308 305 301 301 300 304 314 317 318 320 321 319 320 313 308 321 321 321 320 319 321 321 320 323 325 319 313 314 319 328 330 329 331 331 330 330 339 345 347 348 350 352 356 357 353 354 352 349 348 349 346 345 344 345 343 338 338 339 341 344 344 344 344
307 305 302 300 306 305 314 316 318 319 321 321 319 302 305 321 319 320 321 319 319 322 327 323 322 318 313 314 323 326 328 329 331 338 344 345 343 346 351 350 353 356 357 358 352 351 349 350 350 350 348 346 343 344 341 339 338 341 343 345 348 348 346
305 305 304 306 310 319 318 317 321 321 320 316 307 299 310 324 325 323 324 320 320 325 324 322 316 323 325 328 328 326 325 325 330 332 335 344 344 346 346 348 350 354 354 354 350 349 349 352 350 348 346 346 346 347 348 345 344 345 347 348 350 349 348
305 306 303 304 309 318 320 320 319 321 315 305 304 321 328 327 321 326 321 321 323 324 327 325 325 325 325 324 325 327 326 326 336 332 337 339 342 341 349 352 351 351 349 352 351 348 354 353 350 350 351 352 351 353 351 349 351 351 354 356 352 350 349
308 308 305 302 295 316 318 318 317 320 313 320 323 329 325 322 323 322 325 322 324 323 325 324 328 326 323 323 324 326 328 329 335 338 336 340 336 338 350 350 352 349 349 348 345 346 344 346 350 351 351 352 353 351 352 351 353 357 356 355 355 352 349
306 303 301 299 313 320 321 319 313 318 324 327 330 327 330 323 323 324 323 327 326 324 326 324 324 325 325 329 330 332 332 331 337 338 340 341 343 350 348 350 350 347 349 347 344 346 341 344 347 348 354 353 352 351 350 351 353 354 357 355 355 352 350
313 309 311 318 324 322 323 324 323 324 325 327 326 325 322 322 324 327 326 329 326 327 328 328 328 326 328 329 327 325 333 330 332 334 338 336 340 344 344 344 343 344 343 343 340 344 348 344 344 349 353 353 351 348 349 348 350 351 352 352 351 350 348
322 321 320 320 321 321 320 321 323 322 322 326 328 327 327 327 327 327 326 326 327 328 331 326 328 327 330 329 327 326 334 335 336 339 341 342 342 341 342 342 344 341 338 338 342 346 349 351 352 352 351 348 343 346 345 345 349 350 349 349 349 347 347
311 304 320 318 318 320 321 320 322 323 324 324 327 327 328 325 326 326 327 330 329 328 330 330 331 328 328 329 330 333 347 339 341 339 339 341 342 339 337 340 343 339 337 336 341 343 343 345 345 343 345 345 349 348 347 345 346 348 346 347 345 346 347
313 316 318 320 319 320 320 320 319 320 323 324 326 327 328 331 329 328 328 328 328 329 327 329 331 328 327 328 334 331 339 339 345 344 342 340 339 342 344 342 349 341 339 337 338 338 342 344 345 339 336 336 337 340 330 329 331 336 343 341 341 344 344
315 318 320 321 319 318 318 319 321 322 323 324 325 326 327 326 327 327 328 326 326 327 329 333 333 330 331 336 339 332 338 337 337 337 338 338 337 341 338 339 346 345 342 340 342 341 340 340 340 339 334 331 330 332 331 333 343 340 336 334 339 339 340
311 313 316 319 311 314 314 316 319 322 323 322 322 324 323 324 324 326 326 327 327 328 329 331 334 336 337 337 338 330 332 334 333 335 332 331 335 337 340 337 338 337 339 341 341 340 340 340 338 337 335 334 333 328 330 332 338 341 340 337 335 334 336
308 314 319 320 321 318 317 317 319 323 322 321 320 320 321 322 323 323 325 326 329 330 330 332 334 338 337 336 336 333 335 335 335 333 333 333 334 336 338 336 336 336 337 339 340 340 339 339 336 335 336 332 336 332 335 336 333 337 336 337 334 332 332
314 316 316 318 317 315 317 318 319 321 324 321 319 319 320 321 321 321 323 324 327 330 329 328 331 336 335 335 335 336 336 336 335 334 333 333 333 335 337 337 336 337 337 338 338 338 338 338 336 336 330 334 337 328 333 335 335 337 335 337 334 331 330
310 315 315 316 317 317 318 320 320 320 324 321 319 319 320 319 319 320 321 324 326 327 328 326 328 332 332 332 335 335 336 336 335 336 336 336 334 332 333 333 336 338 339 340 340 338 336 338 337 335 334 335 336 331 334 330 332 332 333 334 328 326 329
Wind_Speed
18 18 13 15 10 11 12 12 13 13 12 13 8 9 12 12 8 8 4 6 8 2 4 8 11 9 6 2 3 5 7 6 11 9 9 6 11 11 14 14 12 14 14 12 14 15 14 13 12 12 12 12 12 11 11 11 10 9 9 8 7 6 6
15 19 16 17 11 12 8 12 12 13 16 10 6 8 6 9 9 8 10 11 9 9 7 9 11 10 8 6 3 5 7 7 5 10 12 14 15 11 15 13 11 14 14 14 14 15 15 14 14 11 12 12 11 11 12 12 10 10 10 9 8 7 6
17 17 17 18 16 17 14 12 13 12 11 12 9 6 8 8 9 8 7 10 11 6 2 8 13 11 10 10 7 7 9 9 8 7 9 14 14 9 9 13 12 14 14 15 12 14 15 13 11 10 11 12 12 11 11 13 12 11 10 9 8 6 5
16 15 14 14 13 13 17 14 11 8 8 9 9 7 6 4 8 5 8 8 5 4 5 11 16 11 10 12 10 9 8 10 11 6 6 8 13 14 14 15 15 14 17 18 18 17 16 14 12 12 15 13 15 14 12 12 11 10 10 9 8 6 6
16 14 12 14 13 13 12 12 10 7 8 6 7 5 9 8 9 7 5 4 4 6 8 15 12 7 7 6 9 7 3 3 8 9 8 4 12 13 15 16 15 15 16 17 16 15 13 12 11 13 14 15 15 14 14 14 12 13 12 9 7 6 5
13 12 15 16 17 15 13 11 11 11 11 9 9 9 10 10 7 4 4 5 6 6 6 10 10 8 9 5 3 6 6 5 1 6 8 5 6 14 11 13 16 17 14 15 15 12 10 12 14 15 13 14 15 15 14 14 14 13 13 9 7 6 5
13 17 17 19 18 18 15 14 11 11 9 7 7 5 6 6 8 10 6 6 7 4 7 8 9 7 11 8 6 3 7 5 5 2 4 8 4 6 12 15 15 15 15 15 14 15 15 14 13 14 14 14 16 15 14 13 13 13 13 12 8 7 6
14 16 12 15 16 17 16 14 14 13 13 11 10 9 5 5 8 9 6 4 5 4 3 7 6 7 8 3 5 3 3 8 3 2 2 4 9 6 9 16 14 14 14 13 12 13 14 13 14 15 14 11 11 14 14 13 14 14 12 13 12 9 7
6 8 11 12 16 14 12 12 13 16 16 15 14 11 3 7 8 10 4 7 7 3 7 6 7 3 5 9 8 2 1 7 4 4 3 2 6 7 8 12 17 15 13 14 14 14 14 13 15 15 14 18 17 12 13 14 13 14 11 9 13 11 10
13 12 11 11 13 16 13 16 18 21 22 19 12 11 6 6 3 5 4 2 7 7 4 6 2 4 4 6 2 9 8 3 0 1 6 3 5 6 7 9 15 16 14 13 12 13 13 13 15 15 14 14 12 11 12 13 12 11 11 7 13 12 11
9 10 5 12 14 13 15 16 19 16 15 16 14 5 6 8 5 8 6 4 9 8 8 7 5 5 2 4 6 4 1 4 5 2 1 5 4 6 8 8 12 12 11 15 15 13 13 14 13 13 12 12 11 9 10 9 6 6 5 7 6 12 10
15 17 11 10 13 13 13 15 15 17 18 14 16 12 11 6 6 6 7 13 14 13 12 8 6 7 8 8 3 4 3 1 4 6 4 3 6 5 4 5 11 13 15 14 14 15 13 13 12 11 10 10 8 8 10 5 7 8 6 4 4 3 5
19 20 22 17 12 14 15 16 17 19 19 20 19 11 14 7 7 9 6 11 11 10 13 12 10 8 2 2 3 4 3 4 4 6 8 8 9 10 11 12 10 13 14 14 16 16 14 14 13 12 11 9 7 8 7 6 7 5 6 10 6 5 4
14 17 23 23 22 17 18 18 17 18 20 22 21 21 19 16 8 8 8 9 10 9 8 6 3 1 2 5 5 1 4 7 4 5 4 11 9 10 10 7 6 9 12 14 14 15 14 15 13 13 11 9 10 10 9 9 7 4 8 8 7 6 6
19 22 23 23 21 19 16 17 20 21 20 19 19 20 20 18 17 18 13 5 4 5 3 6 7 5 2 5 5 6 4 6 8 7 10 7 11 11 10 8 7 4 6 10 13 14 14 15 15 14 13 10 11 12 9 9 9 7 7 9 7 7 7
14 16 15 16 18 20 21 20 22 23 21 20 17 14 15 15 8 1 4 4 5 3 7 7 5 6 6 4 4 6 7 8 7 9 9 6 5 9 11 10 11 11 9 11 14 15 16 15 15 14 12 12 11 8 7 6 4 7 7 9 9 8 7
13 14 18 23 21 19 18 19 23 22 15 13 13 13 13 12 7 5 6 8 5 1 2 4 4 2 7 6 6 3 2 4 5 4 3 4 5 4 10 12 13 14 16 16 14 14 15 15 15 14 12 10 9 8 7 7 9 12 9 11 9 8 8
10 15 20 16 8 11 11 7 14 10 11 16 19 17 17 5 5 2 2 4 5 1 1 1 4 5 3 3 3 2 2 3 5 5 6 7 7 8 7 10 12 13 13 13 14 16 14 13 14 13 11 12 10 9 8 5 10 10 9 9 9 9 8
9 9 11 10 13 11 7 9 11 14 15 17 21 22 17 5 5 3 5 2 4 6 7 4 3 2 4 4 5 6 5 3 5 5 8 7 6 7 8 6 9 10 11 11 13 14 15 15 13 11 10 11 10 8 8 11 12 9 10 10 9 9 9
9 11 10 10 11 9 7 7 9 15 15 15 11 12 13 11 6 9 6 7 8 7 3 2 4 4 7 5 2 3 5 8 8 9 8 9 9 8 7 5 8 10 12 11 13 14 13 12 13 13 12 12 11 9 9 13 11 8 10 9 10 9 9
12 10 11 13 2 8 7 8 9 8 7 7 7 8 5 6 7 3 3 4 5 7 6 4 2 6 2 2 2 8 11 9 9 8 8 8 7 7 5 7 8 8 9 9 11 10 12 12 13 14 14 14 11 11 13 12 9 9 8 9 9 10 10
10 11 11 11 8 9 7 6 8 8 12 9 9 6 9 4 7 4 3 5 4 2 1 2 6 4 3 5 6 9 16 12 7 7 7 6 6 6 7 6 8 8 8 9 9 11 13 13 13 12 14 13 12 11 10 10 11 10 10 10 10 9 10
5 8 11 10 8 8 5 5 6 10 9 13 11 8 8 3 9 4 3 7 5 3 1 3 5 3 4 5 5 7 8 9 6 8 8 6 9 8 9 11 11 11 9 9 11 10 11 12 11 11 12 12 12 10 11 12 12 12 11 10 11 11 10
5 7 6 9 5 6 3 7 7 10 10 5 6 11 6 3 1 3 7 10 7 6 6 6 4 2 4 5 2 4 7 4 6 5 3 6 10 9 9 10 10 9 9 10 12 12 13 11 11 11 11 10 10 9 10 10 10 10 10 10 9 9 9
11 12 9 11 4 3 2 7 12 14 8 8 7 5 1 6 6 2 3 8 6 4 3 4 5 4 4 4 7 7 8 10 6 7 6 8 8 10 12 12 12 10 10 10 12 12 10 10 9 9 8 8 7 8 7 7 7 6 8 9 9 8 8
10 7 13 11 7 2 6 6 12 8 4 11 6 1 4 9 2 5 3 3 1 4 4 2 2 3 3 11 7 5 7 9 7 6 10 9 5 2 7 12 12 12 13 11 12 12 9 9 8 6 6 4 3 3 4 5 5 5 3 4 6 8 8
9 8 7 4 6 5 8 5 4 10 6 0 1 1 3 4 9 7 5 4 1 1 2 2 4 6 6 7 11 10 5 6 7 6 10 8 10 9 10 13 13 13 12 13 13 13 12 8 6 4 6 4 4 3 3 3 2 2 3 3 4 6 8
4 7 5 1 4 4 6 0 1 7 9 7 3 1 6 9 1 2 1 2 3 5 4 6 7 8 10 9 7 7 6 6 6 5 9 9 5 5 10 14 15 13 11 10 11 12 12 9 6 3 3 5 5 4 3 1 2 3 3 4 5 5 6
3 2 4 2 4 8 11 9 8 7 6 5 6 1 5 2 2 8 3 6 5 4 5 6 6 6 6 9 10 10 5 5 9 9 10 10 8 8 7 11 11 11 12 9 9 7 5 10 9 7 4 5 5 4 2 1 2 3 3 4 5 5 5
4 7 6 4 5 6 7 6 4 3 6 10 9 11 8 6 7 3 5 6 6 7 6 8 6 6 6 8 9 8 8 5 3 1 6 8 10 9 9 7 7 9 10 10 10 13 10 9 8 7 5 4 3 2 1 1 2 3 4 4 5 5 5
3 2 8 6 2 4 12 12 13 12 9 8 7 7 5 4 3 4 2 3 4 5 6 7 7 8 8 9 7 9 4 4 7 6 5 5 7 5 7 7 4 7 9 9 10 11 10 7 8 7 7 5 4 3 3 4 5 6 6 5 3 3 4
3 5 2 4 9 12 11 8 8 9 8 8 6 5 2 2 3 3 5 4 4 4 6 3 6 6 7 8 6 11 3 6 8 7 7 8 5 2 5 6 1 5 7 8 10 9 6 7 6 6 4 3 2 0 2 4 5 1 2 1 3 4 5
5 7 4 3 2 9 8 8 8 7 6 6 6 5 7 7 8 8 6 6 4 4 7 9 8 7 5 10 10 7 12 11 9 9 9 10 12 11 5 8 4 6 8 11 10 10 8 7 6 5 5 3 4 3 2 3 7 4 1 2 2 4 5
2 3 4 8 3 2 6 7 7 6 6 6 7 6 7 7 8 8 9 9 7 3 5 4 7 7 7 6 7 8 6 7 5 8 10 10 9 7 3 5 8 9 9 8 7 8 6 5 6 4 3 3 2 2 3 4 5 5 5 4 4 5 5
2 3 4 6 5 7 6 5 4 4 5 5 6 7 6 7 7 8 8 9 11 7 4 5 4 5 5 5 5 9 10 9 12 11 9 8 2 12 7 5 5 7 7 7 7 6 5 3 5 5 3 3 3 3 3 2 2 2 2 2 4 6 6
10 7 7 6 5 4 2 4 1 3 3 4 5 6 7 7 7 8 7 8 7 9 3 1 2 3 2 2 7 8 10 12 10 11 10 11 12 9 7 8 9 8 8 6 7 9 5 4 4 3 4 4 4 1 2 3 1 0 2 2 4 5 6
8 6 7 6 5 5 4 4 4 2 6 5 5 6 8 7 8 8 8 6 6 7 7 6 5 4 3 4 6 5 7 8 9 9 12 12 10 8 8 9 9 7 6 5 6 6 6 7 6 4 4 4 4 2 2 1 1 1 1 3 5 6 6
Wind_Direction
175 211 216 247 171 207 171 201 223 241 200 205 214 244 257 280 280 257 273 250 225 168 161 235 185 188 160 178 194 153 146 149 149 158 133 203 218 189 170 178 181 166 169 168 163 164 168 172 175 176 168 162 167 166 172 182 180 174 185 185 190 191 183
195 189 222 241 175 237 173 199 207 237 283 283 230 249 213 213 249 253 210 224 232 203 253 177 164 181 143 143 228 228 147 141 157 160 165 188 210 188 166 171 172 169 174 168 159 168 173 175 177 173 168 165 168 170 173 177 177 180 183 185 192 184 183
189 183 208 230 239 203 236 200 188 212 180 240 251 255 254 243 227 254 236 236 247 235 167 138 146 151 158 157 164 228 146 163 184 204 194 180 186 152 176 175 174 176 172 174 162 170 178 176 171 170 169 168 172 174 176 177 180 182 181 185 189 180 177
180 186 193 220 217 222 231 255 253 195 259 243 227 196 262 292 281 238 243 234 263 203 179 152 135 176 174 155 166 183 192 165 170 182 215 191 177 138 187 190 187 179 174 175 173 174 180 177 170 170 175 179 182 180 175 174 178 178 178 185 179 178 174
183 191 180 218 210 206 215 236 251 244 229 202 257 149 209 222 245 244 261 236 58 23 112 130 149 156 123 117 147 128 139 288 165 164 177 211 171 177 184 176 183 177 173 179 173 170 170 179 174 175 181 185 186 182 177 179 176 178 181 184 176 174 175
212 212 175 211 223 209 213 208 226 243 213 219 197 201 177 228 246 264 258 253 84 76 59 91 112 105 128 90 60 131 171 198 247 143 167 199 203 173 186 147 173 185 182 176 173 168 165 177 184 184 183 187 192 185 179 183 180 181 182 178 175 172 175
215 221 191 186 231 244 229 205 212 237 263 215 229 247 175 189 234 252 238 266 101 111 100 110 117 165 129 144 160 186 154 125 142 168 201 168 191 183 181 154 183 182 179 180 175 170 178 183 184 182 183 195 198 188 182 184 180 183 185 177 175 166 173
227 217 195 179 197 249 252 217 210 208 236 237 226 225 232 226 204 221 219 237 120 106 115 124 98 73 100 89 95 341 160 139 135 171 300 145 167 174 200 160 176 180 183 169 171 177 184 190 178 182 185 196 220 195 185 181 183 182 191 174 173 169 173
211 203 171 225 184 199 246 250 207 215 215 227 250 254 167 237 239 243 205 222 122 63 54 74 118 203 159 148 139 146 137 124 180 159 180 186 152 169 189 162 163 173 169 172 179 182 190 197 179 183 182 189 203 185 185 181 185 181 192 172 162 166 175
207 203 200 203 221 190 207 243 241 205 212 205 210 229 209 233 161 257 237 205 116 127 146 74 40 132 5 341 284 153 165 136 358 355 158 164 158 169 195 162 157 173 174 176 181 184 192 196 180 178 185 187 187 179 186 182 181 178 172 172 151 166 177
232 225 222 200 232 189 206 210 239 254 228 224 219 197 225 222 170 206 187 173 143 159 184 157 183 151 214 207 202 210 232 164 151 203 202 151 163 170 197 172 168 165 165 180 187 190 195 192 180 178 180 180 182 170 172 174 126 102 122 154 153 160 182
257 257 244 228 230 244 198 211 220 236 257 242 232 231 232 161 171 218 174 177 169 191 198 200 202 175 175 170 237 305 302 216 187 166 172 169 164 180 224 207 172 176 179 177 181 190 192 177 173 175 176 176 167 153 161 148 122 136 133 79 85 142 171
219 246 266 268 253 219 237 227 223 225 224 247 254 238 239 207 199 231 156 175 188 178 207 193 199 204 233 229 194 253 248 200 210 198 188 187 198 184 191 217 203 185 183 186 184 183 179 170 170 171 171 168 145 147 145 124 144 131 118 129 178 177 164
218 222 245 250 254 243 219 234 241 232 229 222 231 251 253 242 218 226 214 200 211 212 238 241 255 357 271 327 14 338 269 277 280 296 223 192 193 189 191 196 201 218 191 176 172 171 172 171 168 170 167 163 154 151 152 149 137 183 143 154 166 175 176
231 222 216 234 245 254 253 232 236 237 232 239 232 230 237 248 248 236 241 222 203 178 194 255 259 268 213 133 220 259 320 322 295 267 250 225 190 194 194 175 198 234 234 181 167 170 172 170 171 172 169 161 155 162 150 139 151 190 159 153 168 178 181
238 242 244 234 236 241 249 252 250 243 233 220 220 233 230 240 241 346 311 271 240 203 203 198 198 229 103 157 182 234 220 238 233 247 266 274 209 189 179 182 175 173 204 209 178 177 176 173 171 172 166 162 155 135 128 129 145 226 180 161 173 181 183
241 239 233 233 233 238 236 238 240 241 254 268 250 243 239 239 238 173 217 232 217 261 24 291 317 93 149 207 220 230 323 7 309 304 306 265 283 267 175 179 181 192 194 204 183 179 178 177 178 173 158 142 126 118 115 176 194 214 178 171 175 180 186
231 231 253 264 270 243 239 280 314 309 248 242 257 258 256 206 143 216 59 50 44 26 222 256 305 291 323 347 32 32 341 304 301 283 249 258 261 270 249 190 188 191 196 193 179 182 181 180 180 170 152 135 137 153 161 191 219 204 176 171 177 183 188
259 254 260 249 245 249 274 272 266 270 271 266 262 267 264 238 143 139 147 112 298 294 274 197 181 253 289 276 270 275 250 249 257 252 267 261 242 241 251 211 183 180 191 176 167 179 182 182 172 163 138 139 142 159 167 209 217 187 173 175 177 184 189
241 249 234 245 242 254 341 323 266 258 266 272 293 295 298 291 256 125 177 208 219 244 220 135 209 218 240 236 238 226 244 251 253 257 251 238 230 228 234 194 171 171 183 187 183 180 185 175 171 166 157 157 162 177 192 210 198 175 171 178 180 183 191
245 233 238 253 352 247 210 250 256 273 262 272 278 284 277 304 280 194 152 175 196 217 213 174 254 270 292 325 290 270 251 210 220 243 246 239 205 207 198 185 165 159 170 180 189 165 166 170 174 169 165 173 175 181 194 195 177 179 175 183 187 189 195
233 240 236 236 225 244 220 238 263 263 270 287 279 276 269 276 284 282 197 153 201 239 328 343 301 8 333 277 272 263 254 188 176 216 250 229 157 161 171 151 151 150 162 176 171 165 164 174 179 173 170 177 182 176 179 181 180 185 189 193 196 194 200
245 231 245 243 245 235 223 224 214 253 260 256 264 258 261 7 289 239 205 225 195 169 202 246 206 223 272 271 273 4 28 115 175 203 221 199 149 158 161 163 161 167 166 173 164 161 161 173 174 170 175 175 178 172 177 187 190 189 194 194 196 202 199
217 261 256 262 249 299 171 237 262 263 256 256 272 248 223 116 245 224 215 235 231 186 187 230 257 231 261 260 10 26 293 247 207 186 204 114 133 150 148 159 156 161 156 152 157 168 168 174 172 173 173 173 179 179 180 193 199 194 192 198 202 201 200
218 210 220 234 226 79 267 240 197 210 223 283 239 228 77 247 221 146 65 89 106 148 211 174 243 215 225 235 261 249 265 273 178 163 154 126 149 155 164 153 155 155 158 154 162 165 167 172 173 170 170 170 172 169 183 193 211 210 190 195 196 196 200
243 254 244 237 240 156 263 354 334 69 240 216 191 313 329 320 100 127 206 186 227 17 341 337 230 222 236 282 300 310 291 279 145 165 126 124 100 173 165 142 153 157 162 156 168 164 156 162 155 163 146 159 169 155 183 201 209 221 230 195 190 197 199
224 222 244 292 254 157 211 118 199 34 330 233 311 91 140 224 26 325 112 249 271 359 301 266 310 330 328 314 320 329 326 307 145 182 143 137 156 193 166 156 162 162 159 164 169 153 142 159 157 145 138 153 155 183 215 224 251 266 269 255 217 203 209
312 246 219 258 2 156 158 117 14 116 132 195 145 189 44 313 223 218 302 61 4 1 336 339 316 318 312 308 293 276 294 303 140 130 134 141 153 120 180 168 165 166 149 164 152 141 149 155 123 136 176 154 164 186 203 212 290 289 282 272 261 245 228
357 55 133 166 349 41 72 88 106 108 131 146 149 174 117 231 357 11 336 14 10 352 313 304 294 289 285 286 290 292 348 268 159 185 159 155 150 142 240 187 165 151 154 153 142 121 123 142 150 158 159 149 151 173 163 235 296 288 287 277 270 260 257
108 35 37 53 43 42 62 116 120 90 106 69 41 40 45 39 30 357 4 0 350 334 332 306 309 294 308 301 297 286 119 124 36 1 116 111 130 141 222 215 160 142 152 147 123 108 102 93 93 102 112 112 140 144 148 184 243 247 249 259 266 268 267
258 348 317 41 15 63 64 46 52 52 47 62 60 56 56 18 8 355 50 3 325 295 305 297 300 305 302 296 285 281 190 163 115 115 111 80 66 61 293 243 178 147 143 132 127 121 118 131 136 136 136 142 143 142 173 208 216 217 231 232 263 290 278
69 190 254 356 54 66 62 54 60 54 49 53 56 55 37 5 41 7 15 331 309 341 290 283 274 276 275 275 303 286 220 117 93 77 63 45 56 88 308 289 115 120 134 143 125 121 118 109 84 81 92 90 132 103 324 294 297 269 3 337 269 272 276
112 105 107 348 217 93 83 76 63 43 38 46 55 35 36 35 27 18 335 317 318 328 11 5 340 302 350 17 339 350 62 56 54 48 34 43 27 6 21 311 335 58 69 78 95 103 95 85 83 81 73 57 29 8 306 336 15 334 243 295 264 265 271
17 92 354 358 132 70 72 52 49 46 39 37 58 45 47 35 25 10 357 336 336 16 355 354 13 17 20 32 48 72 83 87 70 68 60 38 28 308 276 82 53 64 66 67 71 84 85 100 111 109 109 86 58 357 11 22 38 31 17 346 304 278 274
111 229 116 25 97 119 54 49 36 45 43 28 54 54 33 27 21 15 356 350 346 350 60 1 25 36 34 23 53 86 79 74 87 92 90 94 148 230 191 136 102 98 103 113 125 108 108 135 115 126 119 132 138 97 75 79 36 34 341 304 287 286 278
94 78 64 49 39 57 57 44 322 72 67 20 28 31 31 11 5 9 352 346 332 318 337 79 34 122 43 59 80 91 115 119 120 134 154 162 198 193 157 155 145 134 133 147 140 137 140 131 112 139 142 140 115 118 105 101 117 125 284 298 280 278 285
75 49 34 21 346 343 328 332 358 2 87 19 19 8 14 350 347 359 327 327 307 302 298 278 207 194 219 199 116 128 134 138 147 158 170 184 193 183 180 154 147 140 138 137 130 135 149 157 151 155 150 132 143 89 69 183 145 220 293 287 293 299 308